EW9994 Weather Reports


time (UTC)temp
C
wind
direction
speed
KPH
gust
KPH
rain 1hr
cm
rain 24hr
cm
rain mn
cm
humidity
%
barometer
mb
20180419171412 22 15 25.7 32.2 0.00 0.00 0.00 47 1024.5
20180419170411 22 27 25.7 35.4 0.00 0.00 0.00 47 1024.5
20180419164911 22 20 17.7 29.0 0.00 0.00 0.00 46 1024.5
20180419161912 22 16 19.3 32.2 0.00 0.00 0.00 46 1024.6
20180419161411 22 32 20.9 37.0 0.00 0.00 0.00 46 1024.6
20180419160911 23 15 22.5 37.0 0.00 0.00 0.00 46 1024.6
20180419160411 23 41 16.1 38.6 0.00 0.00 0.00 45 1024.5
20180419153911 23 29 22.5 37.0 0.00 0.00 0.00 45 1024.5
20180419151911 23 23 22.5 41.8 0.00 0.00 0.00 44 1024.6
20180419151411 23 22 20.9 35.4 0.00 0.00 0.00 44 1024.6
20180419150911 23 3 16.1 29.0 0.00 0.00 0.00 43 1024.6
20180419150411 23 22 14.5 35.4 0.00 0.00 0.00 44 1024.6
20180419144911 24 43 16.1 29.0 0.00 0.00 0.00 43 1024.7
20180419144411 24 6 16.1 33.8 0.00 0.00 0.00 44 1024.7
20180419143911 24 11 20.9 35.4 0.00 0.00 0.00 42 1024.7
20180419143411 24 49 16.1 37.0 0.00 0.00 0.00 42 1024.7
20180419140911 24 8 9.7 24.1 0.00 0.00 0.00 43 1025.0
20180419140410 23 86 11.3 29.0 0.00 0.00 0.00 41 1025.0
20180419134912 23 65 22.5 32.2 0.00 0.00 0.00 40 1025.2
20180419134411 23 72 20.9 35.4 0.00 0.00 0.00 40 1025.3
20180419133910 23 66 19.3 32.2 0.00 0.00 0.00 40 1025.2
20180419133410 23 69 14.5 32.2 0.00 0.00 0.00 41 1025.3
20180419131910 23 58 20.9 29.0 0.00 0.00 0.00 41 1025.3
20180419130411 23 61 14.5 33.8 0.00 0.00 0.00 41 1025.5
20180419124911 23 59 25.7 37.0 0.00 0.00 0.00 40 1025.6
20180419124411 23 32 14.5 33.8 0.00 0.00 0.00 42 1025.7
20180419121410 23 42 17.7 27.4 0.00 0.00 0.00 41 1026.0
20180419120911 23 38 16.1 32.2 0.00 0.00 0.00 42 1026.1
20180419114911 22 83 19.3 32.2 0.00 0.00 0.00 41 1026.2
20180419114411 22 64 20.9 32.2 0.00 0.00 0.00 41 1026.1
20180419113911 22 56 9.7 25.7 0.00 0.00 0.00 42 1026.2
20180419113412 22 82 16.1 32.2 0.00 0.00 0.00 42 1026.3
20180419111911 22 63 19.3 29.0 0.00 0.00 0.00 42 1026.4
20180419110911 22 86 22.5 33.8 0.00 0.00 0.00 42 1026.5
20180419110411 22 84 22.5 41.8 0.00 0.00 0.00 42 1026.6
20180419104911 22 71 22.5 32.2 0.00 0.00 0.00 41 1026.7
20180419104411 22 44 9.7 20.9 0.00 0.00 0.00 43 1026.7
20180419103911 22 65 11.3 32.2 0.00 0.00 0.00 41 1026.8
20180419101911 22 61 14.5 27.4 0.00 0.00 0.00 42 1026.9
20180419101412 22 71 9.7 19.3 0.00 0.00 0.00 41 1026.9
20180419094911 22 341 6.4 25.7 0.00 0.00 0.00 42 1027.0
20180419094411 22 62 9.7 24.1 0.00 0.00 0.00 40 1027.2
20180419093911 22 303 4.8 16.1 0.00 0.00 0.00 40 1027.1
20180419091411 22 58 4.8 12.9 0.00 0.00 0.00 39 1027.2
20180419090411 21 338 3.2 25.7 0.00 0.00 0.00 40 1027.3
20180419084411 21 86 11.3 19.3 0.00 0.00 0.00 39 1027.3
20180419083910 21 88 3.2 16.1 0.00 0.00 0.00 42 1027.2
20180419083411 21 10 19.3 32.2 0.00 0.00 0.00 41 1027.2
20180419081910 20 123 8.0 19.3 0.00 0.00 0.00 45 1027.1
20180419081410 20 21 8.0 22.5 0.00 0.00 0.00 43 1027.2
20180419074911 20 11 8.0 35.4 0.00 0.00 0.00 44 1027.3
20180419074410 20 31 16.1 38.6 0.00 0.00 0.00 46 1027.2
20180419073411 20 46 6.4 32.2 0.00 0.00 0.00 46 1027.2
20180419071910 20 69 11.3 22.5 0.00 0.00 0.00 44 1027.3
20180419070411 20 36 11.3 27.4 0.00 0.00 0.00 43 1027.3
20180419064910 20 80 14.5 24.1 0.00 0.00 0.00 41 1027.2
20180419063411 19 90 6.4 27.4 0.00 0.00 0.00 42 1027.2
20180419061910 19 80 8.0 19.3 0.00 0.00 0.00 44 1027.1
20180419061411 18 81 8.0 16.1 0.00 0.00 0.00 45 1027.1
20180419060911 17 59 6.4 9.7 0.00 0.00 0.00 49 1027.2
20180419060411 17 218 1.6 19.3 0.00 0.00 0.00 52 1027.1
20180419054411 16 6 4.8 8.0 0.00 0.00 0.00 57 1027.0
20180419053912 16 344 8.0 9.7 0.00 0.00 0.00 57 1027.0
20180419051910 16 228 4.8 19.3 0.00 0.00 0.00 53 1026.9
20180419051412 16 200 6.4 16.1 0.00 0.00 0.00 54 1026.8
20180419050411 18 214 3.2 19.3 0.00 0.00 0.00 47 1026.7
20180419044910 18 192 9.7 22.5 0.00 0.00 0.00 43 1026.5
20180419044411 18 119 16.1 22.5 0.00 0.00 0.00 44 1026.4
20180419043910 17 268 8.0 12.9 0.00 0.00 0.00 49 1026.4
20180419043411 17 216 3.2 19.3 0.00 0.00 0.00 49 1026.4
20180419041910 16 215 11.3 19.3 0.00 0.00 0.00 53 1026.2
20180419041410 17 202 8.0 16.1 0.00 0.00 0.00 51 1026.2
20180419040909 16 208 8.0 16.1 0.00 0.00 0.00 51 1026.2
20180419040409 16 190 6.4 19.3 0.00 0.00 0.00 53 1026.1
20180419034910 16 161 9.7 14.5 0.00 0.00 0.00 55 1026.2
20180419034410 15 148 4.8 9.7 0.00 0.00 0.00 56 1026.2
20180419033911 15 221 6.4 16.1 0.00 0.00 0.00 57 1026.1
20180419033410 15 175 6.4 11.3 0.00 0.00 0.00 57 1026.0
20180419031911 14 9 6.4 12.9 0.00 0.00 0.00 61 1026.4
20180419031410 15 200 8.0 9.7 0.00 0.00 0.00 60 1026.3
20180419030909 15 159 6.4 8.0 0.00 0.00 0.00 61 1026.4
20180419024910 15 42 4.8 12.9 0.00 0.00 0.00 61 1026.7
20180419023409 15 101 0.0 9.7 0.00 0.00 0.00 58 1026.8
20180419021911 15 70 1.6 11.3 0.00 0.00 0.00 59 1026.9
20180419020910 15 163 3.2 11.3 0.00 0.00 0.00 59 1026.9
20180419020409 15 42 8.0 11.3 0.00 0.00 0.00 60 1027.1
20180419013910 15 45 4.8 12.9 0.00 0.00 0.00 58 1027.4
20180419013410 15 52 8.0 12.9 0.00 0.00 0.00 58 1027.5
20180419011410 13 47 8.0 14.5 0.00 0.00 0.00 65 1027.7
20180419010910 13 27 9.7 14.5 0.00 0.00 0.00 65 1027.7
20180419004910 14 36 14.5 19.3 0.00 0.00 0.00 63 1027.9
20180419004410 14 37 9.7 16.1 0.00 0.00 0.00 63 1027.8
20180419003909 13 30 9.7 20.9 0.00 0.00 0.00 63 1027.8
20180419001910 13 32 9.7 16.1 0.00 0.00 0.00 64 1027.8
20180419001410 14 43 9.7 14.5 0.00 0.00 0.00 63 1027.9
20180419000909 14 27 6.4 12.9 0.00 0.00 0.00 62 1027.9
20180419000409 14 54 16.1 22.5 0.00 0.00 0.00 63 1028.0
20180418234909 13 35 14.5 19.3 0.00 0.00 0.00 63 1028.0
20180418234410 14 37 9.7 19.3 0.00 0.00 0.00 61 1028.0
20180418233910 15 46 8.0 16.1 0.00 0.00 0.00 59 1028.1
20180418233410 15 44 11.3 20.9 0.00 0.00 0.00 59 1028.2
20180418231410 15 37 9.7 16.1 0.00 0.00 0.00 59 1028.2
20180418230910 16 30 9.7 14.5 0.00 0.00 0.00 55 1028.1
20180418230410 16 21 4.8 14.5 0.00 0.00 0.00 54 1028.2
20180418224910 15 42 8.0 16.1 0.00 0.00 0.00 57 1028.2
20180418223409 15 40 8.0 14.5 0.00 0.00 0.00 59 1028.3
20180418221409 14 29 8.0 11.3 0.00 0.00 0.00 60 1028.3
20180418220909 14 47 8.0 12.9 0.00 0.00 0.00 60 1028.2
20180418214910 15 40 9.7 19.3 0.00 0.00 0.00 57 1028.1
20180418213910 15 26 11.3 19.3 0.00 0.00 0.00 57 1028.1
20180418213411 15 65 8.0 16.1 0.00 0.00 0.00 55 1027.9
20180418210910 14 40 4.8 14.5 0.00 0.00 0.00 58 1027.9
20180418204410 14 347 3.2 12.9 0.00 0.00 0.00 58 1027.6
20180418203909 14 39 9.7 19.3 0.00 0.00 0.00 58 1027.6
20180418203412 15 47 9.7 16.1 0.00 0.00 0.00 57 1027.5
20180418193909 16 41 11.3 14.5 0.00 0.00 0.00 55 1027.6
20180418191409 17 42 4.8 11.3 0.00 0.00 0.00 50 1027.4
20180418190410 17 33 8.0 12.9 0.00 0.00 0.00 52 1027.3
20180418184909 18 45 4.8 11.3 0.00 0.00 0.00 48 1027.0
20180418184410 18 47 9.7 12.9 0.00 0.00 0.00 47 1027.0
20180418183910 19 258 1.6 4.8 0.00 0.00 0.00 44 1026.8
20180418183409 19 223 4.8 11.3 0.00 0.00 0.00 42 1026.7
20180418181910 20 225 3.2 8.0 0.00 0.00 0.00 41 1026.5
20180418181410 20 340 3.2 9.7 0.00 0.00 0.00 39 1026.6
20180418180911 20 292 3.2 9.7 0.00 0.00 0.00 39 1026.5
20180418180409 20 325 1.6 9.7 0.00 0.00 0.00 39 1026.4
20180418174910 21 45 9.7 20.9 0.00 0.00 0.00 38 1026.4
20180418174410 21 29 14.5 20.9 0.00 0.00 0.00 38 1026.3
20180418173910 21 8 11.3 27.4 0.00 0.00 0.00 38 1026.3
20180418173410 21 341 11.3 27.4 0.00 0.00 0.00 38 1026.3
20180418171910 21 337 11.3 19.3 0.00 0.00 0.00 37 1026.4